File timestamp: Mon Aug 15 19:00:00 2016, Internal temp: 18.61572265625
1471287601, 0.0615643449127674, 0.0493182875216007, 0.0301031470298767, 32809, 33305, 23437, -1.06488478183746
1471287602, 0.065200574696064, 0.0494713932275772, 0.0303311627358198, 32802, 33311, 23434, NaN
1471287603, 0.0676213428378105, 0.049655370414257, 0.0313998162746429, 32806, 33311, 23435, NaN
1471287604, 0.069916158914566, 0.0503416694700718, 0.0323609784245491, 32822, 33302, 23424, NaN
1471287605, 0.0710137560963631, 0.0510184541344643, 0.0324098207056522, 32815, 33295, 23435, NaN
1471287606, 0.0710575804114342, 0.0512071363627911, 0.0322691015899181, 32805, 33316, 23430, NaN
1471287607.01, 0.0695829764008522, 0.0514072217047215, 0.0321577042341232, 32799, 33315, 23430, NaN
1471287608.01, 0.0673973187804222, 0.0515816658735275, 0.0326794721186161, 32807, 33296, 23431, NaN
1471287608.01, 0.0645167678594589, 0.051760621368885, 0.0328854769468307, 32816, 33309, 23418, NaN
1471287609.018, 0.0604222752153873, 0.0515103712677956, 0.0329987704753876, 32822, 33296, 23439, NaN
1471287609.376, 0.0588980130851269, 0.0512732528150082, 0.0329176671802998, 32804, 33308, 23427, NaN
1471287610.376, 0.053899135440588, 0.0512501671910286, 0.0330321975052357, 32808, 33294, 23446, NaN
1471287611.376, 0.0478011965751648, 0.0522874966263771, 0.0332637056708336, 32803, 33298, 23445, NaN
1471287611.376, 0.0405049696564674, 0.0517216995358467, 0.0329104624688625, 32799, 33301, 23441, NaN
1471287612.382, 0.0317423045635223, 0.0515387058258057, 0.0323963351547718, 32795, 33318, 23430, NaN
1471287613.382, 0.0227873083204031, 0.0518111623823643, 0.0330790765583515, 32795, 33302, 23436, NaN
1471287614.382, 0.013105247169733, 0.0514297373592854, 0.0333336070179939, 32803, 33312, 23433, NaN
1471287615.382, 0.00414024200290442, 0.0512709207832813, 0.0331535488367081, 32805, 33294, 23439, NaN
1471287615.382, -0.00374753540381789, 0.0504844151437283, 0.0326202698051929, 32799, 33310, 23428, NaN
1471287616.388, -0.010421029292047, 0.0511658489704132, 0.032222144305706, 32794, 33310, 23440, NaN
1471287617.388, -0.0167056769132614, 0.0511643923819065, 0.0321654081344604, 32808, 33313, 23447, NaN
1471287618.388, -0.0221393350511789, 0.0505250059068203, 0.0316675826907158, 32814, 33300, 23431, NaN
1471287619.388, -0.0273429658263922, 0.0497850254178047, 0.0312564484775066, 32816, 33310, 23429, NaN
1471287619.388, -0.0329463519155979, 0.0502326264977455, 0.0312157217413187, 32790, 33305, 23436, NaN
1471287620.392, -0.0379000566899776, 0.0501647926867008, 0.0316634960472584, 32804, 33305, 23438, NaN
1471287621.392, -0.0410780757665634, 0.0502883903682232, 0.031589712947607, 32811, 33305, 23440, NaN
1471287622.392, -0.0418693460524082, 0.0504278391599655, 0.0314993932843208, 32794, 33306, 23441, NaN
1471287623.392, -0.0429887622594833, 0.050106804817915, 0.0315796807408333, 32798, 33309, 23438, NaN
1471287624.392, -0.0439890846610069, 0.0495758503675461, 0.0318449512124062, 32802, 33297, 23428, NaN
1471287625.392, -0.0438871160149574, 0.0502469874918461, 0.0315599888563156, 32818, 33301, 23445, NaN
1471287626.392, -0.0429316945374012, 0.0508074015378952, 0.0308435671031475, 32799, 33313, 23442, NaN
1471287627.392, -0.0422150641679764, 0.0507884584367275, 0.0308917257934809, 32810, 33312, 23438, NaN
1471287628.392, -0.0421441905200481, 0.0495205782353878, 0.0315259024500847, 32813, 33315, 23433, NaN
1471287629.392, -0.0410531125962734, 0.0497511215507984, 0.0314849279820919, 32807, 33307, 23439, NaN
1471287630.392, -0.0385321713984013, 0.0496873445808887, 0.0314556919038296, 32818, 33313, 23431, NaN
1471287631.4, -0.0349044129252434, 0.0495197847485542, 0.0311854537576437, 32795, 33310, 23439, NaN
1471287632.4, -0.0300142597407103, 0.0489520989358425, 0.0316357798874378, 32820, 33309, 23426, NaN
1471287633.4, -0.0234770737588406, 0.0491066090762615, 0.0310060791671276, 32812, 33297, 23431, NaN
1471287633.4, -0.0154788112267852, 0.0488674007356167, 0.0311580188572407, 32824, 33306, 23428, NaN
1471287634.408, -0.00658385502174497, 0.049254659563303, 0.0316005274653435, 32805, 33305, 23435, NaN
1471287635.408, 0.00331409834325314, 0.0490727312862873, 0.0317794494330883, 32805, 33312, 23434, NaN
1471287636.408, 0.0135231288149953, 0.0494862087070942, 0.0315657220780849, 32810, 33298, 23434, NaN
1471287637.408, 0.0233818162232637, 0.0495461262762547, 0.0312107838690281, 32807, 33304, 23433, NaN
1471287637.408, 0.0321951434016228, 0.0494699478149414, 0.0310599431395531, 32789, 33292, 23438, NaN
1471287638.414, 0.0400417037308216, 0.0497574359178543, 0.0309272054582834, 32803, 33304, 23438, NaN
1471287639.414, 0.0465781018137932, 0.0496116429567337, 0.0311841201037169, 32794, 33296, 23436, NaN
1471287640.414, 0.0512863323092461, 0.0489035993814468, 0.0321736671030521, 32801, 33307, 23437, NaN
1471287641.414, 0.054328978061676, 0.0492131486535072, 0.0316458158195019, 32802, 33296, 23438, NaN
1471287642.414, 0.0564969293773174, 0.0490023009479046, 0.0312773175537586, 32818, 33312, 23432, NaN
1471287643.414, 0.056551855057478, 0.0495730563998222, 0.0311581790447235, 32812, 33307, 23433, NaN
1471287644.414, 0.054484810680151, 0.0494999252259731, 0.0312840715050697, 32813, 33299, 23415, NaN
1471287645.414, 0.0513039007782936, 0.0490364395081997, 0.0312551148235798, 32805, 33306, 23440, NaN
1471287646.414, 0.0470595918595791, 0.0489855520427227, 0.0308930706232786, 32809, 33296, 23439, NaN
1471287647.414, 0.0299177337437868, 0.049408633261919, 0.0312149319797754, 32806, 33316, 23435, NaN
1471287648.414, 0.00165497988928109, 0.0495128184556961, 0.0306344386190176, 32790, 33307, 23437, NaN
1471287649.414, -0.021230248734355, 0.0495152324438095, 0.0312796793878078, 32811, 33314, 23436, NaN
1471287650.414, -0.0392776168882847, 0.0499310977756977, 0.0305836945772171, 32807, 33313, 23433, NaN
1471287651.414, -0.0530059710144997, 0.0498303435742855, 0.0306777600198984, 32828, 33304, 23429, NaN
1471287652.414, -0.0629115030169487, 0.0502716265618801, 0.0302839893847704, 32821, 33301, 23433, NaN
1471287653.414, -0.0694660618901253, 0.0505644418299198, 0.0306020453572273, 32812, 33303, 23434, NaN
1471287654.414, -0.0731157213449478, 0.0511576049029827, 0.0306942388415337, 32803, 33303, 23434, NaN
1471287655.414, -0.0742794722318649, 0.0513520464301109, 0.031231639906764, 32806, 33306, 23423, -0.640526711940765
1471287656.414, -0.0733483359217644, 0.0513415522873402, 0.0308323632925749, 32796, 33306, 23446, NaN
1471287657.414, -0.0706846639513969, 0.0516145527362823, 0.0305308140814304, 32809, 33307, 23443, NaN
1471287658.424, -0.066621720790863, 0.052003525197506, 0.0304948911070824, 32814, 33294, 23431, NaN
1471287659.424, -0.061463650316, 0.052100021392107, 0.0301556643098593, 32814, 33310, 23427, NaN
1471287660.424, -0.0554855950176716, 0.0516060627996922, 0.0296751111745834, 32802, 33305, 23438, NaN
1471287660.424, -0.0489341765642166, 0.0507835485041142, 0.0300051998347044, 32812, 33301, 23433, NaN
1471287661.432, -0.0420281626284122, 0.0507663264870644, 0.0306316297501326, 32801, 33305, 23430, NaN
1471287662.432, -0.0349593684077263, 0.0507554821670055, 0.0315616950392723, 32800, 33308, 23431, NaN
1471287663.432, -0.0278937481343746, 0.0516023524105549, 0.0314113460481167, 32809, 33305, 23446, NaN
1471287664.432, -0.0209726523607969, 0.0516353920102119, 0.0313676111400127, 32817, 33299, 23422, NaN
1471287664.432, -0.0149240903556347, 0.0516392402350903, 0.0302627477794886, 32795, 33316, 23435, NaN
1471287665.438, -0.0099649466574192, 0.0519777350127697, 0.0304055791348219, 32797, 33315, 23443, NaN
1471287666.438, -0.00505815027281642, 0.0521561950445175, 0.0300000235438347, 32807, 33305, 23431, NaN
1471287667.438, 0.00113354693166912, 0.0523094870150089, 0.0297371409833431, 32798, 33299, 23435, NaN
1471287668.438, 0.00765587901696563, 0.0514148660004139, 0.0305261462926865, 32805, 33302, 23441, NaN
1471287668.438, 0.0135398134589195, 0.0503714494407177, 0.0309039708226919, 32816, 33316, 23429, NaN
1471287669.442, 0.0171710718423128, 0.0500054210424423, 0.0312413536012173, 32801, 33303, 23443, NaN
1471287670.442, 0.0190767087042332, 0.0503956042230129, 0.0313783250749111, 32812, 33299, 23431, NaN
1471287671.442, 0.0199746526777744, 0.0503891259431839, 0.0318133346736431, 32795, 33314, 23431, NaN
1471287672.442, 0.0202361196279526, 0.0505965575575829, 0.0315135233104229, 32801, 33289, 23439, NaN
1471287673.442, 0.0192971471697092, 0.0505455993115902, 0.0318610593676567, 32797, 33305, 23442, NaN
1471287674.442, 0.0176481045782566, 0.0506937243044376, 0.0310139115899801, 32805, 33313, 23427, NaN
1471287675.442, 0.0159171707928181, 0.0512970611453056, 0.0295487977564335, 32805, 33291, 23433, NaN
1471287676.442, 0.0159713681787252, 0.0511186271905899, 0.029842384159565, 32802, 33310, 23445, NaN
1471287677.442, 0.0161428190767765, 0.0524134524166584, 0.0295003727078438, 32810, 33303, 23428, NaN
1471287678.442, 0.0161180682480335, 0.0519815906882286, 0.0293795876204967, 32809, 33307, 23441, NaN
1471287679.442, 0.0164999533444643, 0.0521820038557053, 0.0297160893678665, 32813, 33308, 23427, NaN
1471287680.442, 0.0170828010886908, 0.0528696924448013, 0.0302385706454515, 32806, 33299, 23429, NaN
1471287681.442, 0.0183823071420193, 0.0526335351169109, 0.0302605461329222, 32815, 33299, 23434, NaN
1471287682.442, 0.0204167347401381, 0.0521326065063477, 0.0300922878086567, 32805, 33298, 23449, NaN
1471287683.442, 0.0221551284193993, 0.052635196596384, 0.0297537483274937, 32803, 33298, 23437, NaN
1471287684.45, 0.0232245735824108, 0.052376464009285, 0.0289226155728102, 32791, 33311, 23426, NaN
1471287685.45, 0.0248025376349688, 0.0517825670540333, 0.0285910591483116, 32794, 33300, 23417, NaN
1471287686.45, 0.0260031819343567, 0.0522743389010429, 0.0282437261193991, 32803, 33294, 23445, NaN
1471287687.45, 0.0253314059227705, 0.0531011708080769, 0.02849574200809, 32801, 33303, 23443, NaN
1471287687.45, 0.0241054836660624, 0.0527469925582409, 0.0292259436100721, 32810, 33306, 23427, NaN
1471287688.458, 0.023152181878686, 0.053205531090498, 0.0294969398528337, 32819, 33304, 23426, NaN
1471287689.458, 0.0212575942277908, 0.0532161258161068, 0.0289447493851185, 32811, 33305, 23432, NaN
1471287690.458, 0.019162256270647, 0.0528644099831581, 0.0291214566677809, 32805, 33301, 23439, NaN
1471287691.458, 0.0162524115294218, 0.0523025318980217, 0.0288442615419626, 32800, 33307, 23431, NaN
1471287691.458, 0.0136427404358983, 0.0521356388926506, 0.0289479307830334, 32819, 33286, 23435, NaN
1471287692.464, 0.0118527971208096, 0.0539410747587681, 0.0287422705441713, 32800, 33306, 23437, NaN
1471287693.464, 0.0110173840075731, 0.0539343319833279, 0.0288319997489452, 32816, 33302, 23429, NaN
1471287694.464, 0.0102788740769029, 0.0532376803457737, 0.0296746343374252, 32812, 33308, 23432, NaN
1471287695.464, 0.00948877912014723, 0.0532937571406364, 0.0301209446042776, 32804, 33312, 23433, NaN
1471287695.464, 0.00828133150935173, 0.0523470528423786, 0.0300603043287992, 32808, 33305, 23432, NaN
1471287696.468, 0.0068024336360395, 0.0523198358714581, 0.0301600191742182, 32796, 33316, 23441, NaN
1471287697.468, 0.00439270678907633, 0.0525481030344963, 0.0296721924096346, 32821, 33298, 23430, NaN
1471287698.468, 0.00151989096775651, 0.0519494786858559, 0.0295947529375553, 32812, 33308, 23424, NaN
1471287699.468, -0.000316123478114605, 0.0523099713027477, 0.0294225718826056, 32807, 33309, 23428, NaN
1471287700.468, -0.00187979941256344, 0.0514943525195122, 0.0298624113202095, 32797, 33308, 23441, NaN
1471287701.468, -0.00380322430282831, 0.0508892685174942, 0.0300617702305317, 32807, 33309, 23435, NaN
1471287702.468, -0.00586601113900542, 0.0496962927281857, 0.029909610748291, 32799, 33299, 23434, NaN
1471287703.468, -0.00757837109267712, 0.050349023193121, 0.0296426583081484, 32808, 33299, 23421, NaN
1471287704.468, -0.00918356981128454, 0.0504862293601036, 0.0297373756766319, 32812, 33294, 23436, NaN
1471287705.468, -0.00871888641268015, 0.0509002134203911, 0.0294473599642515, 32810, 33296, 23431, NaN
1471287706.468, -0.00429182499647141, 0.0506790578365326, 0.0294240564107895, 32811, 33295, 23431, NaN
1471287707.468, 0.00429211184382439, 0.0498829409480095, 0.0286932364106178, 32805, 33302, 23443, NaN
1471287708.468, 0.00366415665484965, 0.049836777150631, 0.0280451476573944, 32807, 33313, 23429, NaN
1471287709.468, -0.00100350147113204, 0.0498609393835068, 0.0277033355087042, 32819, 33308, 23422, -2.03665375709534
1471287710.478, -0.00479158805683255, 0.0501594543457031, 0.0277795568108559, 32824, 33317, 23435, NaN
1471287711.478, -0.00778485182672739, 0.0495781600475311, 0.0274718254804611, 32807, 33304, 23433, NaN
1471287712.478, -0.0100654410198331, 0.0498695448040962, 0.0271573420614004, 32800, 33313, 23431, NaN
1471287713.478, -0.0117125110700727, 0.0494977869093418, 0.0269205458462238, 32799, 33296, 23442, NaN
1471287713.478, -0.0128018567338586, 0.0495075881481171, 0.0267349053174257, 32781, 33294, 23447, NaN
1471287714.486, -0.0134055903181434, 0.0496427565813065, 0.0279885083436966, 32809, 33306, 23434, NaN
1471287715.486, -0.0135918585583568, 0.0500717386603355, 0.0275067444890738, 32804, 33298, 23425, NaN
1471287716.486, -0.0134246172383428, 0.0501157380640507, 0.027683574706316, 32792, 33296, 23437, NaN
1471287717.486, -0.0129634523764253, 0.0507958680391312, 0.0274986177682877, 32811, 33308, 23431, NaN
1471287717.486, -0.0122634526342154, 0.050851933658123, 0.0277020838111639, 32811, 33312, 23431, NaN
1471287718.492, -0.0113751431927085, 0.0516863130033016, 0.0288283582776785, 32818, 33303, 23426, NaN
1471287719.492, -0.0103444634005427, 0.0517598018050194, 0.0287525020539761, 32800, 33299, 23435, NaN
1471287720.492, -0.00921279191970825, 0.0520838014781475, 0.029030580073595, 32814, 33315, 23437, NaN
1471287721.492, -0.00801701936870813, 0.0517537593841553, 0.0298453066498041, 32805, 33315, 23428, NaN
1471287722.492, -0.00678966660052538, 0.0514863431453705, 0.0293117314577103, 32811, 33301, 23437, NaN
1471287723.492, -0.00555902346968651, 0.0518375784158707, 0.0300128683447838, 32806, 33315, 23428, NaN
1471287724.492, -0.00434933882206678, 0.05189298838377, 0.0311542879790068, 32799, 33307, 23436, NaN
1471287725.492, -0.00318102212622762, 0.0523883514106274, 0.0312622375786304, 32822, 33298, 23420, NaN
1471287726.492, -0.00207087490707636, 0.051993478089571, 0.030739676207304, 32787, 33302, 23449, NaN
1471287727.492, -0.00103233603294939, 0.0507822334766388, 0.0310636516660452, 32807, 33306, 23428, NaN
1471287728.492, -7.57408270146698e-05, 0.0504127442836761, 0.0303342342376709, 32800, 33316, 23441, NaN
1471287729.492, 0.000791411963291466, 0.0505541674792767, 0.0304101090878248, 32809, 33305, 23442, NaN
1471287730.492, 0.00156418886035681, 0.0502662770450115, 0.0299449805170298, 32822, 33310, 23424, NaN
1471287731.492, 0.00223994976840913, 0.0500323213636875, 0.0300725419074297, 32812, 33310, 23435, NaN
1471287732.492, 0.00281807966530323, 0.0505178421735764, 0.0290282592177391, 32799, 33302, 23445, NaN
1471287733.492, 0.00329972500912845, 0.0508494339883327, 0.0291709396988153, 32818, 33303, 23423, NaN
1471287734.492, 0.00368754216469824, 0.0511969216167927, 0.0285818874835968, 32811, 33314, 23437, NaN
1471287735.492, 0.00398545246571302, 0.0509896315634251, 0.0283511374145746, 32799, 33309, 23423, NaN
1471287736.492, 0.00419841334223747, 0.0500517934560776, 0.0279519874602556, 32796, 33310, 23446, NaN
1471287737.492, 0.00433220388367772, 0.0505966655910015, 0.0277375541627407, 32792, 33307, 23446, NaN
1471287738.502, 0.00439322227612138, 0.0503833144903183, 0.0269538294523954, 32811, 33299, 23436, NaN
1471287739.502, 0.00438830489292741, 0.0502751395106316, 0.0269910711795092, 32787, 33314, 23439, NaN
1471287740.502, 0.00432455772534013, 0.050537433475256, 0.0274360608309507, 32790, 33303, 23429, NaN
1471287741.502, 0.00420920876786113, 0.0510890670120716, 0.0268235839903355, 32804, 33314, 23437, NaN
1471287741.504, 0.00377576239407063, 0.0512512251734734, 0.026363518089056, 32788, 33293, 23442, NaN
1471287742.508, 0.00146561465226114, 0.0508608035743237, 0.027085043489933, 32799, 33306, 23428, NaN
1471287743.508, -0.000247383286477998, 0.0506748929619789, 0.0265034306794405, 32797, 33313, 23437, NaN
1471287744.508, -0.00256039923988283, 0.0499695055186749, 0.0273104477673769, 32810, 33295, 23433, NaN
1471287745.508, -0.00523091992363334, 0.0502317287027836, 0.0267059169709682, 32804, 33310, 23425, NaN
1471287745.508, -0.00939710065722466, 0.0504516884684563, 0.0276915542781353, 32811, 33302, 23434, NaN
1471287746.514, -0.0126881618052721, 0.0512467063963413, 0.0272862669080496, 32806, 33299, 23435, NaN
1471287747.514, -0.0158479623496532, 0.0515676364302635, 0.0271092057228088, 32801, 33316, 23431, NaN
1471287748.514, -0.0181046184152365, 0.0519823767244816, 0.0274285059422255, 32806, 33311, 23434, NaN
1471287749.514, -0.0196349751204252, 0.0520585887134075, 0.0270793903619051, 32794, 33301, 23443, NaN
1471287749.514, -0.0203884020447731, 0.0513966903090477, 0.0266016758978367, 32804, 33309, 23436, NaN
1471287750.518, -0.0196331050246954, 0.0510140992701054, 0.0266699269413948, 32821, 33311, 23428, NaN
1471287751.518, -0.0169129241257906, 0.0507534965872765, 0.0269431415945292, 32801, 33311, 23436, NaN
1471287752.518, -0.0137597182765603, 0.0504890158772469, 0.0267687402665615, 32813, 33305, 23428, NaN
1471287753.518, -0.0110929850488901, 0.0501916334033012, 0.0259267874062061, 32803, 33302, 23440, NaN
1471287753.518, -0.00867563299834728, 0.0502833835780621, 0.0263936687260866, 32799, 33305, 23437, NaN
1471287754.52, -0.00540860230103135, 0.0491707660257816, 0.0271369107067585, 32815, 33299, 23435, NaN
1471287755.52, -0.00215327995829284, 0.0486928969621658, 0.0263417586684227, 32812, 33311, 23437, NaN
1471287756.52, 0.00146176270209253, 0.0494037754833698, 0.0263254009187222, 32800, 33300, 23425, NaN
1471287757.52, 0.00670380052179098, 0.0491044856607914, 0.0256522502750158, 32806, 33292, 23429, NaN
1471287758.52, 0.0118779744952917, 0.0492052622139454, 0.0256468672305346, 32806, 33304, 23447, NaN
1471287759.52, 0.017256997525692, 0.0488631464540958, 0.0259657148271799, 32808, 33295, 23450, NaN
1471287760.52, 0.021246699616313, 0.0482978522777557, 0.0266459211707115, 32813, 33315, 23433, NaN
1471287761.52, 0.0225191488862038, 0.0479119122028351, 0.0270087625831366, 32799, 33301, 23437, NaN
1471287762.52, 0.0225066430866718, 0.0479698739945889, 0.027221042662859, 32805, 33308, 23440, NaN
1471287763.528, 0.0234459973871708, 0.0471243858337402, 0.0271470807492733, 32819, 33314, 23434, -2.44469523429871
1471287764.528, 0.0243964549154043, 0.0476421155035496, 0.0275087524205446, 32806, 33296, 23429, NaN
1471287765.528, 0.0250581484287977, 0.0472063831984997, 0.0277257915586233, 32812, 33302, 23438, NaN
1471287766.528, 0.0259495191276073, 0.0467473864555359, 0.0276274755597115, 32805, 33297, 23436, NaN
1471287766.528, 0.0258359331637621, 0.0469263419508934, 0.0271575357764959, 32800, 33305, 23439, NaN
1471287767.536, 0.0258841961622238, 0.0473065115511417, 0.0265697278082371, 32800, 33300, 23442, NaN
1471287768.536, 0.0260236337780952, 0.0474993251264095, 0.0266093071550131, 32822, 33312, 23425, NaN
1471287769.536, 0.0259906407445669, 0.0478185303509235, 0.0265106204897165, 32802, 33304, 23437, NaN
1471287770.536, 0.0247459802776575, 0.0479309819638729, 0.0267795845866203, 32801, 33301, 23443, NaN
1471287771.536, 0.0216670632362366, 0.048062015324831, 0.0270582195371389, 32797, 33296, 23450, NaN
1471287772.536, 0.018408952280879, 0.0485546439886093, 0.0268646329641342, 32801, 33304, 23435, NaN
1471287773.536, 0.0151840532198548, 0.0482853390276432, 0.0266823973506689, 32807, 33315, 23428, NaN
1471287774.536, 0.0121334111317992, 0.0481256954371929, 0.026076577603817, 32803, 33304, 23449, NaN
1471287775.536, 0.0086669409647584, 0.0485216416418552, 0.025325721129775, 32788, 33305, 23431, NaN
1471287776.536, 0.00556288659572601, 0.0486274845898151, 0.0252806693315506, 32818, 33305, 23431, NaN
1471287777.536, 0.00352731812745333, 0.0493209585547447, 0.0250514484941959, 32802, 33305, 23445, NaN
1471287778.536, 0.00161443592514843, 0.0495651066303253, 0.0251490902155638, 32818, 33318, 23428, NaN
1471287779.536, -0.000369228539057076, 0.0495424345135689, 0.0253930184990168, 32805, 33303, 23430, NaN
1471287780.536, -0.00286650867201388, 0.0489755347371101, 0.0255353879183531, 32808, 33299, 23417, NaN
1471287781.536, -0.00576813984662294, 0.047992043197155, 0.0256580393761396, 32795, 33304, 23435, NaN
1471287782.536, -0.00750441942363977, 0.0470167994499207, 0.0254558641463518, 32810, 33294, 23421, NaN
1471287783.536, -0.00900008995085955, 0.047337431460619, 0.0261136814951897, 32797, 33287, 23444, NaN
1471287784.536, -0.0112570505589247, 0.0467597357928753, 0.0268258396536112, 32798, 33306, 23423, NaN
1471287785.536, -0.0121652325615287, 0.0470470525324345, 0.0268890894949436, 32801, 33304, 23437, NaN
1471287786.536, -0.0127003490924835, 0.0479554608464241, 0.0269239135086536, 32811, 33303, 23427, NaN
1471287787.536, -0.0141366049647331, 0.0482851453125477, 0.0267965700477362, 32814, 33299, 23432, NaN
1471287788.536, -0.014066819101572, 0.047887496650219, 0.0270138140767813, 32808, 33313, 23430, NaN
1471287789.536, -0.00778574775904417, 0.0473014302551746, 0.0266879200935364, 32793, 33302, 23455, NaN
1471287790.536, 0.00712686264887452, 0.0476220846176147, 0.0262678619474173, 32810, 33295, 23435, NaN
1471287790.536, 0.0312647931277752, 0.047855019569397, 0.0263389311730862, 32795, 33300, 23428, NaN
1471287791.544, 0.0612307265400887, 0.0488399043679237, 0.0266875587403774, 32802, 33305, 23437, NaN
1471287792.544, 0.0396994166076183, 0.0487145893275738, 0.0263156741857529, 32812, 33308, 23440, NaN
1471287793.544, 0.0214353855699301, 0.0483938604593277, 0.0264483895152807, 32795, 33305, 23439, NaN
1471287794.544, 0.00616841856390238, 0.0481133088469505, 0.0266157109290361, 32811, 33303, 23429, NaN
1471287794.544, -0.00636588735505939, 0.0478674285113811, 0.0267157536000013, 32805, 33299, 23440, NaN
1471287795.552, -0.0164250638335943, 0.0475500598549843, 0.0271366871893406, 32812, 33303, 23439, NaN
1471287796.552, -0.0242586750537157, 0.0471445880830288, 0.0275853294879198, 32799, 33312, 23444, NaN
1471287797.552, -0.0301072355359793, 0.0471723601222038, 0.0278506688773632, 32802, 33302, 23447, NaN
1471287798.552, -0.0342011973261833, 0.0471439510583878, 0.0279210545122623, 32816, 33309, 23426, NaN
1471287798.552, -0.036760039627552, 0.0465188063681126, 0.0278974268585443, 32795, 33319, 23426, NaN
1471287799.558, -0.0379914566874504, 0.0470039881765842, 0.0280392281711102, 32800, 33294, 23435, NaN
1471287800.558, -0.0380906872451305, 0.0468384847044945, 0.0284465309232473, 32814, 33304, 23422, NaN
1471287801.558, -0.0372400023043156, 0.0472447089850903, 0.0273235533386469, 32810, 33301, 23426, NaN
1471287802.558, -0.0356083065271378, 0.0473461262881756, 0.0270370971411467, 32802, 33305, 23431, NaN
1471287802.558, -0.0333509333431721, 0.047444649040699, 0.0267487149685621, 32811, 33296, 23444, NaN
1471287803.562, -0.0306095443665981, 0.0465285740792751, 0.0263059437274933, 32813, 33312, 23436, NaN
1471287804.562, -0.0275121908634901, 0.0465343296527863, 0.0262789446860552, 32801, 33308, 23445, NaN
1471287805.562, -0.0241735056042671, 0.0471150279045105, 0.0267077870666981, 32784, 33305, 23436, NaN
1471287806.562, -0.0206950083374977, 0.0467387065291405, 0.0265669394284487, 32801, 33295, 23431, NaN
1471287806.562, -0.0171655230224133, 0.04651864990592, 0.0263733230531216, 32809, 33307, 23438, NaN
1471287807.564, -0.013661690056324, 0.0465858206152916, 0.0256682857871056, 32803, 33304, 23443, NaN
1471287808.564, -0.0102485530078411, 0.0458662360906601, 0.0258073844015598, 32796, 33293, 23435, NaN
1471287809.564, -0.0069802263751626, 0.0462232492864132, 0.0259681474417448, 32820, 33305, 23430, NaN
1471287810.564, -0.00390060478821397, 0.0451820269227028, 0.0269067715853453, 32811, 33305, 23434, NaN